Tracking 17261 objects as of 28-August-2015
HD Live streaming from Space Station

IMS-1

Track IMS-1 now!
10-day predictions
IMS-1 is classified as:


NORAD ID: 32786
Int'l Code: 2008-021D
Perigee: 616.5 km
Apogee: 632.4 km
Inclination: 97.7 °
Period: 97.0 minutes
Semi major axis: 6995 km
RCS: 0.5386 m2 (medium)
Launch date: April 28, 2008
Source: India (IND)

IMS-1 is a small spacecraft featuring two medium- and low-resolution cameras to gather photos of locations around the world. Data from the 183-pound [83-kg] satellite's technology demonstration systems and cameras will be made available to developing nations.
Your satellite tracking list
Your tracking list is empty





NASA's NSSDC Master Catalog

Two Line Element Set (TLE):
1 32786U 08021D   15240.09896327  .00000635  00000-0  82687-4 0  9992
2 32786 097.6518 272.4356 0011363 214.5196 145.5297 14.83799822396290

Source of the keplerian elements: AFSPC

N2YO: 1463